Regional Weather Roundup
Issued by NWS New Orleans/Baton Rouge, LA

Home | Current Version | Previous Version | Graphics & Text | Print | Product List | Glossary On
Versions: 1 2 3 4 5 6 7 8 9 10 11 12 13 14 15 16 17 18 19 20 21 22 23 24 25 26 27 28 29 30 31 32 33 34 35 36 37 38 39 40 41 42 43 44 45 46 47 48 49 50
559
ASUS44 KLIX 241801
RWRLIX
NEW ORLEANS REGIONAL WEATHER ROUNDUP
NATIONAL WEATHER SERVICE NEW ORLEANS LA
100 PM CDT THU APR 24 2014

NOTE: "FAIR" INDICATES FEW OR NO CLOUDS BELOW 12,000 FEET WITH NO
      SIGNIFICANT WEATHER AND/OR OBSTRUCTIONS TO VISIBILITY.
      SKY/WX - SKY CONDITION AND SIGNIFICANT WEATHER.
      TMP - AIR TEMPERATURE.     DP    - DEWPOINT TEMPERATURE.
      RH  - RELATIVE HUMIDITY.   PRES  - PRESSURE.
      HI  - HEAT INDEX.          WCI   - WIND CHILL INDEX.

*  THESE STATIONS ARE NOT NWS OR FAA STATIONS AND ARE NOT UNDER
   NWS QUALITY CONTROL.

LAZ038-040-048-061>063-065>067-069-241900-
SOUTHEAST LOUISIANA

CITY           SKY/WX    TMP DP  RH WIND       PRES   REMARKS
N.O. AUDUBON     N/A     82  65  55 MISG        N/A
6HR MIN TEMP:  67; 6HR MAX TEMP:  82;

N.O. INTL ARPT PTSUNNY   81  66  60 S12       29.95F
6HR MIN TEMP:  64; 6HR MAX TEMP:  81;

N.O. LAKEFRONT CLOUDY    77  67  71 N9        29.96F
6HR MIN TEMP:  66; 6HR MAX TEMP:  80;

N.O. DOWNTOWN*   N/A     82  61  47 S9G16     29.96F
6HR MIN TEMP:  70; 6HR MAX TEMP:  82;

SLIDELL          N/A     79  62  56 S10       29.96F
6HR MIN TEMP:  57; 6HR MAX TEMP:  80;

BATON ROUGE    PTSUNNY   83  64  52 S12G17    29.93F
6HR MIN TEMP:  63; 6HR MAX TEMP:  83;

BOOTHVILLE       N/A     76  65  68 S8        29.98F
6HR MIN TEMP:  66; 6HR MAX TEMP:  76;

BELLE CHASSE   PTSUNNY   80  62  54 S9        29.96F
6HR MIN TEMP:  59; 6HR MAX TEMP:  81;

BOGALUSA*        N/A     82  60  48 S12G17    29.96F
6HR MIN TEMP:  59; 6HR MAX TEMP:  82;

GALLIANO*        N/A     81  65  59 S10       29.97F
6HR MIN TEMP:  58; 6HR MAX TEMP:  81;

NEW ROADS*     NOT AVBL
GONZALES*        N/A     80  65  60 SE8       29.93F
6HR MIN TEMP:  61; 6HR MAX TEMP:  80;

HAMMOND*       NOT AVBL
HOUMA*         PTSUNNY   81  64  57 SE15      29.97F
PORT FOURCHON* MOCLDY    75  66  73 S10       29.99F

$$

MSZ070-080>082-241900-
SOUTHERN MISSISSIPPI

CITY           SKY/WX    TMP DP  RH WIND       PRES   REMARKS
MCCOMB           N/A     79  60  52 SE13G23   29.94F
6HR MIN TEMP:  57; 6HR MAX TEMP:  80;

GULFPORT         N/A     78  64  61 S8        29.97F
6HR MIN TEMP:  64; 6HR MAX TEMP:  79;

BILOXI         NOT AVBL
PASCAGOULA       N/A     79  64  60 SW9       29.97F
6HR MIN TEMP:  60; 6HR MAX TEMP:  80;

STENNIS ARPT*  MOSUNNY   79  61  53 SE10      29.97F

$$

COASTAL OBSERVATIONS
LAKE AND NEARSHORE STATIONS

STATION/POSITION TIME  TEMP    WIND        PRES    WAVE
                       AIR SEA DIR/SP/G            HT/PER
                 (UTC) (F)     (DEG/KT/KT) (MB)    (FT/S)
PASCAGOULA       1700   75     190/  9/ 11 1014.7
WAVELAND YACHT   1700   72 75  170/  8/ 10 1014.5
GRAND ISLE       1700   74 72  150/  5/  9 1015.8
SOUTHWEST PASS   1700   76 61  150/  6/  7 1015.9
NEW CANAL        1700   74 71   80/  2/  4 1015.1
SHELL BEACH      1700   76 68  180/  9/ 13 1014.7

OFFSHORE STATIONS

STATION/POSITION TIME  TEMP    WIND        PRES    WAVE
                       AIR SEA DIR/SP/G            HT/PER
                 (UTC) (F)     (DEG/KT/KT) (MB)    (FT/S)
64 S DAUPHIN ISL 1749   71 75  150/  4/  6 1015.8

$$




USA.gov is the U.S. government's official web portal to all federal, state and local government web resources and services.